NOAA 20 (JPSS-1) (43013 NORAD) Tracking and Keplerian Element Data

This shows tracking and keplerian element data for the satellite.

Feedback or suggestion? Click here.




ElementValue
Catalog43013
NameNOAA 20 (JPSS-1)
Epoch Orbit41907
Epoch Day354.17993565
Epoch Year2025
RAAN290.3956
Inclination98.7609
Eccentricity0.0002124
Argument of Perigee76.5199
Mean Anonmoly283.6214
Mean Motion14.19527574
Decay Rate4.9E-07
L11 43013U 17073A 25354.17993565 .00000049 00000+0 44215-4 0 9995
L22 43013 98.7609 290.3956 0002124 76.5199 283.6214 14.19527574419074



Live tracking and technical data element details for NOAA 20 (JPSS-1) (NORAD 43013). NOAA 20 (JPSS-1) can be tracked NOW for your location showing map with azimuth and elevation plus other details from your city location.







IsCatalogInMostPopularTable: catalog: 43013, numindb: 1834
Update: records affected: 1



GetName: 43013 NOAA 20 (JPSS-1)

Hit Count: updated at: Sat, 07 Mar 2026 05:13:46 GMT